Tacoma Narrows, WA
on Wednesday, November 21, 2012

Wednesday
Previous Day Next Day
Daily Summary
 ActualAverageRecord
Temperature
Mean Temperature °F / °C °F / °C  
Max Temperature 48°F / 9°C 47°F / 8°C 55°F / 12°C (2002)
Min Temperature 42°F / 6°C 39°F / 3°C 32°F / 0°C (2010)
Degree Days
Heating Degree Days 20    
Moisture
Dew Point 39°F / 4°C   
Average Humidity 82    
Maximum Humidity 87    
Minimum Humidity 71    
Precipitation
Precipitation 0.49 in / 12.45 cm in / cm in / cm ()
Wind
Wind Speed 11 mph / 18 km/h   
Max Wind Speed 24 mph / 39 km/h   
Max Gust Speed 40 mph / 64 km/h   
Visibility 9 miles / 15 kilometers   
Events Rain   
Averages and records for this station are not official NWS values.
Key: T is trace of precipitation, MM is missing value
Source: NWS Daily Summary
Seasonal Weather Averages
Time(PST)TemperatureDew PointHumidity Pressure Visibility Wind DirectionWind SpeedGust SpeedPrecipitationEvents Conditions
12:53 AM 45.0°F / 7.2°C 39.0°F / 3.9°C 80% 29.53 in / 999.9 hPa 10.0 miles / 16.1 kilometers Calm Calm - 0.00 in / 0.0 cm Rain Light Rain
1:53 AM 45.0°F / 7.2°C 39.9°F / 4.4°C 82% 29.53 in / 999.8 hPa 10.0 miles / 16.1 kilometers Calm Calm - 0.06 in / 1.5 cm Rain Light Rain
2:53 AM 46.0°F / 7.8°C 41.0°F / 5.0°C 83% 29.55 in / 1000.5 hPa 10.0 miles / 16.1 kilometers South 9.2 mph / 14.8 km/h - 0.00 in / 0.0 cm Rain Light Rain
3:41 AM 48.2°F / 9.0°C 39.2°F / 4.0°C 71% 29.55 in / 1000.6 hPa 10.0 miles / 16.1 kilometers South 15.0 mph / 24.1 km/h 24.2 mph / 38.9 km/h N/A   Overcast
3:53 AM 46.9°F / 8.3°C 39.9°F / 4.4°C 77% 29.56 in / 1000.9 hPa 10.0 miles / 16.1 kilometers South 19.6 mph / 31.5 km/h 26.5 mph / 42.6 km/h 0.00 in / 0.0 cm Rain Light Rain
4:53 AM 46.9°F / 8.3°C 39.0°F / 3.9°C 74% 29.58 in / 1001.5 hPa 10.0 miles / 16.1 kilometers South 20.7 mph / 33.3 km/h 34.5 mph / 55.6 km/h 0.01 in / 0.3 cm Rain Light Rain
5:11 AM 44.6°F / 7.0°C 39.2°F / 4.0°C 81% 29.58 in / 1001.6 hPa 6.0 miles / 9.7 kilometers South 24.2 mph / 38.9 km/h 40.3 mph / 64.8 km/h 0.03 in / 0.8 cm Rain Light Rain
5:53 AM 43.0°F / 6.1°C 37.9°F / 3.3°C 82% 29.68 in / 1004.8 hPa 7.0 miles / 11.3 kilometers SSW 15.0 mph / 24.1 km/h 25.3 mph / 40.7 km/h 0.06 in / 1.5 cm Rain Light Rain
6:53 AM 43.0°F / 6.1°C 39.0°F / 3.9°C 86% 29.72 in / 1006.4 hPa 10.0 miles / 16.1 kilometers SSW 13.8 mph / 22.2 km/h 21.9 mph / 35.2 km/h 0.06 in / 1.5 cm   Mostly Cloudy
7:45 AM 42.8°F / 6.0°C 39.2°F / 4.0°C 87% 29.76 in / 1007.7 hPa 10.0 miles / 16.1 kilometers South 15.0 mph / 24.1 km/h - N/A   Scattered Clouds
7:53 AM 44.1°F / 6.7°C 37.9°F / 3.3°C 79% 29.77 in / 1007.9 hPa 10.0 miles / 16.1 kilometers South 16.1 mph / 25.9 km/h 25.3 mph / 40.7 km/h N/A   Scattered Clouds
8:53 AM 42.8°F / 6.0°C 39.2°F / 4.0°C 87% 29.81 in / 1009.4 hPa 4.0 miles / 6.4 kilometers SW 5.8 mph / 9.3 km/h - N/A Rain Light Rain
9:53 AM 44.1°F / 6.7°C 39.9°F / 4.4°C 85% 29.84 in / 1010.4 hPa 10.0 miles / 16.1 kilometers SSW 8.1 mph / 13.0 km/h - 0.03 in / 0.8 cm   Overcast
10:53 AM 43.0°F / 6.1°C 39.0°F / 3.9°C 86% 29.87 in / 1011.5 hPa 4.0 miles / 6.4 kilometers SSW 19.6 mph / 31.5 km/h 25.3 mph / 40.7 km/h 0.15 in / 3.8 cm Rain Light Rain
11:53 AM 44.1°F / 6.7°C 39.0°F / 3.9°C 82% 29.88 in / 1011.9 hPa 10.0 miles / 16.1 kilometers South 15.0 mph / 24.1 km/h 23.0 mph / 37.0 km/h 0.06 in / 1.5 cm   Overcast
12:17 PM 44.6°F / 7.0°C 39.2°F / 4.0°C 81% 29.88 in / 1011.7 hPa 10.0 miles / 16.1 kilometers South 17.3 mph / 27.8 km/h 25.3 mph / 40.7 km/h N/A   Mostly Cloudy
12:53 PM 45.0°F / 7.2°C 37.9°F / 3.3°C 76% 29.90 in / 1012.4 hPa 10.0 miles / 16.1 kilometers South 19.6 mph / 31.5 km/h 27.6 mph / 44.4 km/h 0.00 in / 0.0 cm   Overcast
1:21 PM 44.6°F / 7.0°C 39.2°F / 4.0°C 81% 29.92 in / 1013.1 hPa 10.0 miles / 16.1 kilometers SSW 12.7 mph / 20.4 km/h 21.9 mph / 35.2 km/h 0.01 in / 0.3 cm Rain Light Rain
1:53 PM 45.0°F / 7.2°C 39.9°F / 4.4°C 82% 29.94 in / 1013.8 hPa 10.0 miles / 16.1 kilometers South 16.1 mph / 25.9 km/h 20.7 mph / 33.3 km/h 0.01 in / 0.3 cm   Overcast
2:53 PM 44.1°F / 6.7°C 39.0°F / 3.9°C 82% 29.98 in / 1015.2 hPa 5.0 miles / 8.0 kilometers SSW 9.2 mph / 14.8 km/h 17.3 mph / 27.8 km/h 0.05 in / 1.3 cm Rain Light Rain
3:53 PM 44.1°F / 6.7°C 37.9°F / 3.3°C 79% 30.04 in / 1017.1 hPa 10.0 miles / 16.1 kilometers SSW 12.7 mph / 20.4 km/h 21.9 mph / 35.2 km/h 0.00 in / 0.0 cm   Overcast
4:00 PM 42.8°F / 6.0°C 37.4°F / 3.0°C 81% 30.04 in / 1017.2 hPa 10.0 miles / 16.1 kilometers SSW 11.5 mph / 18.5 km/h - N/A   Mostly Cloudy
4:53 PM 43.0°F / 6.1°C 37.9°F / 3.3°C 82% 30.08 in / 1018.5 hPa 10.0 miles / 16.1 kilometers SSW 11.5 mph / 18.5 km/h 21.9 mph / 35.2 km/h N/A   Scattered Clouds
5:53 PM 44.1°F / 6.7°C 39.0°F / 3.9°C 82% 30.11 in / 1019.4 hPa 10.0 miles / 16.1 kilometers South 12.7 mph / 20.4 km/h 24.2 mph / 38.9 km/h N/A   Clear
6:53 PM 43.0°F / 6.1°C 37.9°F / 3.3°C 82% 30.16 in / 1021.1 hPa 10.0 miles / 16.1 kilometers SSW 9.2 mph / 14.8 km/h 18.4 mph / 29.6 km/h N/A   Clear
7:53 PM 43.0°F / 6.1°C 37.9°F / 3.3°C 82% 30.19 in / 1022.2 hPa 10.0 miles / 16.1 kilometers South 12.7 mph / 20.4 km/h - N/A   Mostly Cloudy
8:53 PM 43.0°F / 6.1°C 37.9°F / 3.3°C 82% 30.23 in / 1023.7 hPa 10.0 miles / 16.1 kilometers South 12.7 mph / 20.4 km/h - N/A   Clear
9:53 PM 42.1°F / 5.6°C 37.9°F / 3.3°C 85% 30.26 in / 1024.6 hPa 10.0 miles / 16.1 kilometers South 11.5 mph / 18.5 km/h - N/A   Clear
10:53 PM 42.1°F / 5.6°C 37.0°F / 2.8°C 82% 30.28 in / 1025.4 hPa 10.0 miles / 16.1 kilometers South 11.5 mph / 18.5 km/h - N/A   Clear
11:53 PM 42.1°F / 5.6°C 37.9°F / 3.3°C 85% 30.30 in / 1025.9 hPa 10.0 miles / 16.1 kilometers South 6.9 mph / 11.1 km/h - N/A   Clear
Moon Phase
Nov. 21 Nov. 28 Dec. 06 Dec. 13 Dec. 20
Sunrise:07:23 AM (PST) Moon Rise:01:09 PM (PST)11/21
Sunset:04:28 PM (PST) Moon Set:12:23 AM (PST)11/21

Copyright © 2014 The Weather Underground, Inc.